Poplar Bluff, MO

2:40 AM CST on January 24, 2018 (GMT -0600)
Poplar Bluff Municipal

Weather History for KPOF - March, 2012

Change the Weather History Date:

Wednesday, March 21, 2012

  Actual Average Record
Temperature  
Mean Temperature 70 °F -  
Max Temperature 75 °F 60 °F 90 °F (1919)
Min Temperature 66 °F 37 °F 19 °F (1986)
Cooling Degree Days 6    
Growing Degree Days 20 (Base 50)    
Moisture  
Dew Point 58 °F    
Average Humidity 66    
Maximum Humidity 78    
Minimum Humidity 55    
Precipitation  
Precipitation 0.00 in - - ()
Sea Level Pressure  
Sea Level Pressure 29.93 in    
Wind  
Wind Speed 8 mph (SE)    
Max Wind Speed 18 mph    
Max Gust Speed 30 mph    
Visibility 10 miles    
Events Rain    
Averages and records for this station are not official NWS values.
T = Trace of Precipitation, MM = Missing Value Source: NWS Daily Summary

Daily Weather History Graph

Daily Weather History Graph

Search for Another Location

Airport or City:

Trip Planner

Search our weather history database for the weather conditions in past years. The results will help you decide how hot, cold, wet, or windy it might be!

Date:

Astronomy

Mar. 21, 2012 Rise Set
Actual Time 7:02 AM CDT 7:14 PM CDT
Civil Twilight 6:36 AM CDT 7:40 PM CDT
Nautical Twilight 6:06 AM CDT 8:10 PM CDT
Astronomical Twilight 5:35 AM CDT 8:41 PM CDT
Moon 6:13 AM CDT (3/21) 6:40 PM CDT (3/21)
Length of Visible Light 13h 03m
Length of Day
12h 11m
Waning Crescent, 1% of the Moon is Illuminated
Mar 21
Waning Crescent
Mar 22
New
Mar 30
First Quarter
Apr 6
Full
Apr 13
Last Quarter

Hourly Weather History & Observations

Time (CDT) Temp. Dew Point Humidity Pressure Visibility Wind Dir Wind Speed Gust Speed Precip Events Conditions
12:53 AM 69.1 °F 55.9 °F 63% 29.91 in 10.0 mi SE 6.9 mph - N/A   Scattered Clouds
1:53 AM 66.9 °F 55.9 °F 68% 29.91 in 10.0 mi ESE 5.8 mph - N/A   Scattered Clouds
2:53 AM 66.9 °F 55.9 °F 68% 29.91 in 10.0 mi ESE 6.9 mph - N/A   Clear
3:53 AM 66.9 °F 55.9 °F 68% 29.91 in 10.0 mi SE 4.6 mph - N/A   Clear
4:53 AM 66.9 °F 55.9 °F 68% 29.92 in 10.0 mi SE 8.1 mph - N/A   Partly Cloudy
5:53 AM 66.9 °F 55.9 °F 68% 29.94 in 10.0 mi ESE 6.9 mph - N/A   Clear
6:53 AM 66.9 °F 55.9 °F 68% 29.95 in 10.0 mi ESE 8.1 mph - N/A   Clear
7:53 AM 66.0 °F 55.9 °F 70% 29.96 in 10.0 mi ESE 8.1 mph - N/A   Clear
8:53 AM 66.9 °F 55.9 °F 68% 29.98 in 10.0 mi ESE 5.8 mph - N/A   Clear
9:53 AM 69.1 °F 57.0 °F 65% 29.98 in 10.0 mi ESE 9.2 mph - N/A   Clear
10:53 AM 72.0 °F 57.0 °F 59% 29.96 in 10.0 mi SE 12.7 mph 20.7 mph N/A   Clear
11:53 AM 72.0 °F 57.9 °F 61% 29.97 in 10.0 mi SE 13.8 mph - N/A   Clear
12:53 PM 73.9 °F 57.9 °F 57% 29.96 in 10.0 mi SSE 15.0 mph 24.2 mph N/A   Clear
1:53 PM 75.0 °F 59.0 °F 57% 29.94 in 10.0 mi SSE 17.3 mph 23.0 mph N/A   Clear
2:53 PM 75.0 °F 57.9 °F 55% 29.91 in 10.0 mi SE 15.0 mph 24.2 mph N/A   Clear
3:53 PM 73.9 °F 57.9 °F 57% 29.91 in 10.0 mi SE 10.4 mph - N/A   Scattered Clouds
4:53 PM 73.0 °F 57.9 °F 59% 29.92 in 10.0 mi SSE 18.4 mph 29.9 mph 0.00 in Rain Light Rain
5:53 PM 70.0 °F 60.1 °F 71% 29.88 in 10.0 mi Calm Calm - 0.00 in   Overcast
6:53 PM 69.1 °F 62.1 °F 78% 29.88 in 10.0 mi Calm Calm - N/A   Overcast
7:53 PM 70.0 °F 61.0 °F 73% 29.89 in 10.0 mi Calm Calm - N/A   Overcast
8:53 PM 70.0 °F 61.0 °F 73% 29.89 in 10.0 mi SE 4.6 mph - 0.00 in Rain Light Rain
9:53 PM 70.0 °F 60.1 °F 71% 29.91 in 10.0 mi SSE 8.1 mph - 0.00 in   Overcast
10:53 PM 70.0 °F 59.0 °F 68% 29.93 in 10.0 mi South 9.2 mph - 0.00 in   Overcast
11:53 PM 69.1 °F 60.1 °F 73% 29.93 in 10.0 mi South 10.4 mph - N/A   Mostly Cloudy